Location: Cheyres
(46.8153°N, 6.7877°E)
Time: 23:29:07
(UTC+00:00)

FENGYUN 1C DEB - Pass Details

Date: 02 December 2021
Orbit: 843 x 915 km, 99.0° (Epoch: 21 January)

Event Time Altitude Azimuth Distance (km) Brightness Sun altitude
Exits shadow 20:18:00 11° 318° (NW) 2,465 ? -45.5°
Drops below altitude 10° 20:18:09 10° 319° (NW) 2,507 ? -45.6°
Sets 20:21:02 0° 334° (NNW) 3,438 ? -46.0°
